Weather History for KMUO - November, 2012

Change the Weather History Date:

Monday, November 19, 2012

  Actual Average Record
Temperature  
Mean Temperature 47 °F 37 °F  
Max Temperature 55 °F 46 °F 64 °F (1908)
Min Temperature 39 °F 27 °F 4 °F (1906)
Degree Days  
Heating Degree Days 18 28  
Month to date heating degree days 402 452  
Cooling Degree Days 0 0  
Month to date cooling degree days 0 0  
Moisture  
Dew Point 42 °F    
Average Humidity 84    
Maximum Humidity 100    
Minimum Humidity 57    
Precipitation  
Precipitation T in 0.04 in 0.97 in (1937)
Month to date precipitation 0.11 0.76  
Sea Level Pressure  
Sea Level Pressure 30.11 in    
Wind  
Wind Speed 14 mph (ESE)    
Max Wind Speed 21 mph    
Max Gust Speed 20 mph    
Visibility 10 miles    
Events Rain    
T = Trace of Precipitation, MM = Missing Value Source: NWS Daily Summary

Daily Weather History Graph

Daily Weather History Graph

Search for Another Location

Airport or City:

Trip Planner

Search our weather history database for the weather conditions in past years. The results will help you decide how hot, cold, wet, or windy it might be!

Date:

Astronomy

Nov. 19, 2012 Rise Set
Actual Time 7:41 AM MST 5:15 PM MST
Civil Twilight 7:10 AM MST 5:46 PM MST
Nautical Twilight 6:36 AM MST 6:21 PM MST
Astronomical Twilight 6:02 AM MST 6:55 PM MST
Moon 12:43 PM MST (11/19) 11:52 PM MST (11/19)
Length of Visible Light 10h 36m
Length of Day
9h 34m
Waxing Crescent, 41% of the Moon is Illuminated
Nov 19
Waxing Crescent
Nov 20
First Quarter
Nov 28
Full
Dec 6
Last Quarter
Dec 13
New

Hourly Weather History & Observations

Time (MST) Temp. Windchill Dew Point Humidity Pressure Visibility Wind Dir Wind Speed Gust Speed Precip Events Conditions
12:03 AM 42.8 °F 37.0 °F 41.0 °F 93% 30.09 in 10.0 mi East 10.4 mph - N/A   Overcast
12:08 AM 42.8 °F 37.5 °F 41.0 °F 93% 30.09 in 10.0 mi ESE 9.2 mph - N/A   Overcast
12:58 AM 42.6 °F 35.6 °F 42.6 °F 100% 30.12 in 10.0 mi ESE 13.8 mph - N/A   Mostly Cloudy
1:58 AM 42.1 °F 34.2 °F 42.1 °F 100% 30.12 in 10.0 mi East 16.1 mph - N/A   Scattered Clouds
2:58 AM 42.3 °F 34.4 °F 42.3 °F 100% 30.12 in 10.0 mi East 16.1 mph - N/A   Mostly Cloudy
3:58 AM 41.4 °F 33.6 °F 41.4 °F 100% 30.12 in 10.0 mi East 15.0 mph - N/A   Mostly Cloudy
4:58 AM 40.8 °F 33.3 °F 40.8 °F 100% 30.12 in 10.0 mi ESE 13.8 mph - N/A   Partly Cloudy
5:58 AM 40.6 °F 32.7 °F 40.6 °F 100% 30.14 in 10.0 mi East 15.0 mph - N/A   Clear
6:58 AM 40.1 °F 32.7 °F 40.1 °F 100% 30.14 in 10.0 mi East 12.7 mph - N/A   Clear
7:55 AM 39.2 °F 31.2 °F 39.2 °F 100% 30.13 in 10.0 mi SE 13.8 mph - N/A   Scattered Clouds
8:55 AM 41.0 °F 33.5 °F 41.0 °F 100% 30.15 in 10.0 mi ESE 13.8 mph - N/A   Scattered Clouds
9:55 AM 44.6 °F 36.4 °F 42.8 °F 93% 30.17 in 10.0 mi East 20.7 mph - N/A   Mostly Cloudy
9:59 AM - - - N/A% - - East 20.7 mph - N/A   Unknown
10:55 AM 48.2 °F - 42.8 °F 82% 30.16 in 10.0 mi ESE 20.7 mph - N/A   Mostly Cloudy
11:55 AM 50.0 °F - 42.8 °F 76% 30.15 in 10.0 mi ESE 19.6 mph - N/A   Mostly Cloudy
12:55 PM 53.6 °F - 41.0 °F 62% 30.12 in 10.0 mi ESE 18.4 mph - N/A   Scattered Clouds
1:16 PM 53.6 °F - 41.0 °F 62% 30.10 in 10.0 mi ESE 16.1 mph - N/A   Scattered Clouds
1:58 PM 54.5 °F - 40.3 °F 59% 30.12 in 10.0 mi East 16.1 mph - N/A   Mostly Cloudy
2:58 PM 54.7 °F - 39.9 °F 58% 30.09 in 10.0 mi East 17.3 mph - N/A   Mostly Cloudy
3:58 PM 54.3 °F - 39.4 °F 57% 30.09 in 10.0 mi East 15.0 mph - N/A   Mostly Cloudy
4:58 PM 53.2 °F - 41.0 °F 63% 30.09 in 10.0 mi East 12.7 mph - N/A   Overcast
5:58 PM 53.2 °F - 40.3 °F 61% 30.10 in 10.0 mi SE 9.2 mph 19.6 mph N/A   Overcast
6:41 PM 51.8 °F - 46.4 °F 82% 30.09 in 10.0 mi East 10.4 mph - N/A   Light Drizzle
6:58 PM 50.4 °F - 48.2 °F 92% 30.09 in 10.0 mi East 12.7 mph - 0.00 in Rain Light Rain
7:13 PM 50.0 °F - 48.2 °F 94% 30.08 in 10.0 mi East 13.8 mph - N/A Rain Light Rain
7:58 PM 50.2 °F - 47.1 °F 89% 30.07 in 10.0 mi East 13.8 mph - 0.00 in   Overcast
8:58 PM 49.1 °F - 47.7 °F 95% 30.07 in 10.0 mi East 15.0 mph - N/A   Mostly Cloudy
9:58 PM 49.8 °F - 44.1 °F 81% 30.08 in 10.0 mi East 16.1 mph - N/A   Mostly Cloudy
10:58 PM 49.5 °F - 42.4 °F 77% 30.06 in 10.0 mi ESE 16.1 mph - N/A   Overcast
11:58 PM 50.4 °F - 42.6 °F 75% 30.06 in 10.0 mi ESE 15.0 mph - N/A   Mostly Cloudy